Meath Environmental Platform

Observations for Trim Market St

Time AQI Temp °C Hum % Pres Pa CO μg/m³ H₂S μg/m³ NO μg/m³ NO₂ μg/m³ O₃ μg/m³ SO₂ μg/m³ PM1 μg/m³ PM2.5 μg/m³ PM10 μg/m³
Wednesday 26 August 2026
01:02 2 16.5 85 2,147,483,647 0.32 0 1.28 15.56 32.05 0 5.7 8.41 12.39
00:56 2 16.5 85 2,147,483,647 0.32 0 1.23 15.24 30.84 0 5.7 7.48 11.31
00:49 2 16.5 85 2,147,483,647 0.3 0 1.51 15.55 34.66 0 5.7 6.09 10.23
00:48 2 16.5 84 2,147,483,647 0.32 0 1.39 21.62 38.38 0 6.41 7.49 11.32
00:47 2 16.5 85 2,147,483,647 0.32 0 1.83 14.62 33.11 0 6.41 7.48 11.31
00:46 2 16.5 85 2,147,483,647 0.31 0 1.72 16.32 29.54 0 5.7 7.48 13.47
00:45 2 16.5 85 2,147,483,647 0.3 0 1.48 14.4 31.71 0 5.7 6.55 10.23
00:43 2 16.5 84 2,147,483,647 0.31 0 1.61 26.51 23.89 0 4.99 6.56 10.24
00:42 2 16.5 84 2,147,483,647 0.31 0 1.41 27.93 37.38 0 6.41 7.49 11.86
00:39 2 16.5 84 2,147,483,647 0.31 0 1.65 14.3 36.58 0 7.13 7.49 11.86
00:38 2 16.5 84 2,147,483,647 0.31 0 1.64 14.39 32.76 0 7.13 7.49 11.86
00:37 2 16.5 84 2,147,483,647 0.31 0 1.36 16.63 34.12 0 5.7 7.02 11.32
00:33 2 16.5 84 2,147,483,647 0.31 0 1.52 17.29 36.41 0 4.99 6.1 10.24
00:31 2 16.5 84 2,147,483,647 0.31 0 1.48 14.19 31.73 0 5.7 7.49 11.86
00:26 2 16.5 84 2,147,483,647 0.3 0 1.15 14.07 23.13 0 6.41 7.03 11.32
00:25 2 16.5 84 2,147,483,647 0.31 0 1.08 23.83 40.86 0 5.7 7.03 11.86
00:18 2 16.5 84 2,147,483,647 0.31 0 1.64 16.97 31.65 0 3.56 6.1 9.7
00:17 2 16.5 84 2,147,483,647 0.3 0 1.64 13.15 29.05 0 5.7 6.57 10.24
00:16 2 16.5 84 2,147,483,647 0.3 0 1.7 19.26 36.89 0 5.7 7.03 10.78
00:15 2 16.5 84 2,147,483,647 0.32 0 1.53 25.31 45.73 0 6.41 7.5 11.86